TIME,DELAY(SENSOR),PRES,OXYGEN,RAWTEMP,T(OPTODE),TCPHASE,FLUOR,BETA(BETA700),BETA(BETA412),BETA(BETA440),CDOM,C(CSC),ED(ED412.40),ED(ED444.00),ED(ED489.70),ED(ED554.30),LU(LU411.80),LU(LU443.40),LU(LU489.60),LU(LU554.10),COMP,TILTX,TILTY,CHECK
1367293781,5808,824.0499877929688000,41.5434799194335940,654.7351074218750000,4.8011488914489750,54.7016487121582000,52,103,90,80,79,14765,2147754944,2147421906,2148007771,2147875620,2147641526,2147060114,2148253906,2147198637,204,4,14,59286
1367297377,5809,881.5300292968750000,45.9533996582031250,659.3054199218750000,4.6508369445800780,54.1067504882812500,53,100,83,80,79,14766,2147754203,2147426834,2148009142,2147875428,2147640118,2147059008,2148260297,2147195776,469,4,13,42362
1367300977,5811,885.3099975585938000,44.4665908813476560,661.3513183593750000,4.5834751129150390,54.3467788696289060,52,99,90,80,80,14765,2147750162,2147425526,2148007890,2147874020,2147638400,2147057170,2148254354,2147192612,263,4,13,48763
1367304577,5808,916.2299804687500000,44.3617897033691400,664.7717285156250000,4.4707551002502440,54.4095611572265600,52,100,84,78,79,14766,2147754139,2147424347,2148012443,2147872996,2147643062,2147056082,2148258852,2147197220,2955,4,13,40242
1367308177,5811,919.0900268554688000,44.7040100097656250,666.0114746093750000,4.4298610687255860,54.3744087219238300,52,97,87,78,80,14768,2147754834,2147425024,2148010834,2147871881,2147639826,2147057700,2148258806,2147195172,295,4,13,5894
1367311777,5809,922.3599853515625000,44.5807189941406250,665.9301757812500000,4.4325451850891110,54.3867301940918000,53,100,85,80,79,14765,2147753837,2147426048,2148007844,2147874660,2147640758,2147056713,2148255872,2147198217,29,4,13,56815
1367315377,5806,953.4000244140625000,45.3457298278808600,667.5048828125000000,4.3805828094482420,54.2942085266113300,52,105,88,79,81,14764,2147754349,2147424045,2148010432,2147873252,2147643410,2147056758,2148259629,2147196361,3381,4,13,8047
1367318977,5807,953.4099731445312000,44.7629089355468750,666.8640136718750000,4.4017372131347660,54.3754997253418000,53,99,87,79,80,14765,2147756288,2147427264,2148009014,2147873782,2147641444,2147055259,2148261129,2147198573,218,4,13,11846
1367322577,5811,962.2299804687500000,44.9874305725097660,667.4644775390625000,4.3819179534912110,54.3518791198730500,52,98,88,79,81,14764,2147757019,2147422637,2148011456,2147872585,2147642368,2147053129,2148262784,2147197796,69,4,13,14160
1367326177,5808,986.7999877929688000,46.9187011718750000,669.9970703125000000,4.2982940673828125,54.1041984558105500,53,99,87,80,81,14766,2147754276,2147424384,2148009106,2147877202,2147641545,2147057051,2148260909,2147196836,2958,4,13,4373
1367329777,5808,972.1300048828125000,47.0279388427734400,671.1790161132812000,4.2592430114746090,54.1008911132812500,53,101,88,78,81,14765,2147756864,2147425581,2148009709,2147875126,2147641380,2147057289,2148259492,2147195538,3302,4,13,12203
1367333377,5808,976.6599731445312000,47.3010406494140600,671.9664916992188000,4.2332148551940920,54.0699501037597660,52,97,85,80,81,14766,2147757851,2147426349,2148011766,2147874898,2147641645,2147051785,2148252589,2147199232,3464,4,13,64827
1367336977,5808,978.1400146484375000,47.5538215637207000,672.4503784179688000,4.2172160148620605,54.0426292419433600,52,98,87,79,79,14765,2147749924,2147426102,2148011757,2147877019,2147645970,2147058797,2148261458,2147197814,3571,4,13,21042
1367340577,5808,972.3599853515625000,47.5583610534668000,672.9141235351562000,4.2018871307373050,54.0491981506347660,52,99,89,78,81,14767,2147755657,2147424960,2148011136,2147871296,2147642770,2147058386,2148257097,2147198290,363,4,13,41995
1367344177,5807,975.3200073242188000,47.8306007385253900,673.3618774414062000,4.1870770454406740,54.0130882263183600,53,101,86,79,80,14762,2147755712,2147426322,2148010477,2147875821,2147644571,2147055085,2148261348,2147196800,43,4,13,33090
1367347777,5806,985.4600219726562000,48.1787490844726560,672.7166137695312000,4.2084159851074220,53.9560508728027340,52,102,86,79,80,14765,2147757833,2147428141,2148011053,2147875776,2147644553,2147049078,2148259812,2147196928,3306,4,13,42068
1367351377,5808,977.0900268554688000,47.3513107299804700,671.3322753906250000,4.2541770935058590,54.0573005676269500,52,99,84,80,81,14764,2147754889,2147423689,2148012754,2147877531,2147640704,2147058733,2148257654,2147194166,3434,4,13,48351
1367354977,5807,978.8800048828125000,47.4158782958984400,673.0894165039062000,4.1960911750793460,54.0657691955566400,53,102,87,79,80,14761,2147757558,2147424576,2148012132,2147873956,2147645184,2147057965,2148257645,2147196626,219,4,13,12575
1367358577,5809,977.8200073242188000,47.5625190734863300,672.3782958984375000,4.2196011543273930,54.0408210754394500,51,98,86,80,80,14764,2147759350,2147423323,2148012982,2147876809,2147642578,2147057920,2148259638,2147196160,3346,4,13,24538
1367362177,5809,978.1099853515625000,47.4967803955078100,672.5651245117188000,4.2134251594543460,54.0495491027832000,53,99,84,80,80,14765,2147756626,2147424274,2148009718,2147875629,2147644242,2147060918,2148258697,2147197430,189,4,13,1007
1367365777,5806,990.8599853515625000,47.2388000488281250,671.5349731445312000,4.2474780082702640,54.0747604370117200,52,100,88,79,79,14763,2147755830,2147424832,2148009426,2147878025,2147644214,2147059986,2148256685,2147196845,263,4,13,19323
1367369377,5806,999.9600219726562000,45.5264091491699200,668.2730712890625000,4.3552269935607910,54.2778701782226560,53,99,85,79,79,14764,2147755474,2147424804,2148010797,2147874203,2147643510,2147058514,2148259977,2147194203,2946,4,13,33524
1367372977,5806,983.9600219726562000,45.3541603088378900,669.4708251953125000,4.3156762123107910,54.3161506652832000,52,100,86,79,80,14758,2147757010,2147421485,2148012909,2147875593,2147642459,2147056356,2148256704,2147194157,3255,4,13,2577
1367376577,5809,986.1599731445312000,47.4085884094238300,670.9636840820312000,4.2663559913635250,54.0463485717773440,53,98,85,78,80,14757,2147756141,2147425590,2148007753,2147875794,2147641700,2147062893,2148262326,2147199323,63,4,13,12516
1367380177,5805,995.2899780273438000,47.4566383361816400,670.7946777343750000,4.2719421386718750,54.0347709655761700,53,99,84,79,80,14757,2147755017,2147425078,2148010953,2147876534,2147642934,2147058843,2148257307,2147196598,3594,4,13,62847
1367383777,5811,978.2899780273438000,47.2307510375976560,671.3510742187500000,4.2535548210144040,54.0733299255371100,53,98,85,78,79,14760,2147757604,2147422518,2148010249,2147873974,2147640402,2147055085,2148258038,2147198354,2487,4,13,21156
1367387377,5812,985.6300048828125000,47.5115203857421900,672.2216186523438000,4.2247810363769530,54.0457115173339840,52,97,86,78,80,14758,2147756370,2147424018,2148011730,2147874276,2147640292,2147058139,2148257435,2147196416,3327,4,13,1388
1367390977,5808,971.4000244140625000,47.0964584350585940,671.8914184570312000,4.2356991767883300,54.0974311828613300,53,98,84,79,81,14754,2147755812,2147423753,2148009974,2147874093,2147642569,2147060224,2148256749,2147195565,1144,4,13,40349
1367394577,5809,986.7899780273438000,47.0923309326171900,672.6425170898438000,4.2108669281005860,54.1079711914062500,53,102,82,79,80,14748,2147757238,2147422738,2148013568,2147874688,2147641243,2147057270,2148265216,2147197110,796,4,13,8576
1367398177,5810,977.9699707031250000,47.5130691528320300,673.2672119140625000,4.1902079582214355,54.0573692321777340,52,99,86,78,80,14752,2147758948,2147426797,2148011264,2147874614,2147643053,2147060772,2148260278,2147196498,3566,4,13,28010
1367401777,5810,980.2500000000000000,48.6358795166015600,674.2456054687500000,4.1578459739685060,53.9154701232910160,51,99,85,79,80,14753,2147758070,2147422948,2148009837,2147872585,2147640338,2147051538,2148259218,2147195958,167,4,13,31282
1367405377,5809,984.1599731445312000,48.0626296997070300,673.0062255859375000,4.1988391876220700,53.9765892028808600,53,98,84,78,80,14752,2147756425,2147422921,2148011629,2147873673,2147641590,2147064987,2148261339,2147199369,39,4,13,60396
1367408977,5810,992.8599853515625000,47.4622497558593750,672.0626220703125000,4.2300400733947750,54.0460281372070300,52,101,84,79,80,14753,2147758912,2147424100,2148011529,2147873124,2147638546,2147058852,2148263890,2147195081,3241,4,13,35014
1367412577,5806,993.8400268554688000,47.3067588806152340,671.2332153320312000,4.2574501037597660,54.0659294128418000,53,97,85,79,80,14751,2147760512,2147425261,2148012598,2147875136,2147640310,2147058212,2148256146,2147196525,175,4,13,50540
1367416177,5812,988.6799926757812000,46.4740905761718750,671.4786987304688000,4.2493381500244140,54.1852416992187500,52,98,88,78,80,14750,2147757851,2147425261,2148011437,2147872566,2147642432,2147062354,2148257380,2147196178,93,4,13,6393
1367419777,5809,983.0700073242188000,47.3949890136718750,673.1010742187500000,4.1957001686096190,54.0699501037597660,52,101,85,80,80,14749,2147757897,2147421641,2148007506,2147876324,2147640493,2147058724,2148257654,2147195273,184,4,13,23056
1367423377,5808,979.1500244140625000,48.2505607604980500,674.0631713867188000,4.1638832092285160,53.9674110412597660,52,98,86,80,79,14750,2147754002,2147423762,2148007725,2147874715,2147642011,2147056896,2148261348,2147198683,3570,4,13,31131
1367426977,5812,983.0800170898438000,49.0995483398437500,674.2100830078125000,4.1590228080749510,53.8511390686035160,53,96,85,79,80,14750,2147757568,2147422025,2148011593,2147871808,2147642185,2147061074,2148258185,2147197595,3382,4,13,36864
1367430577,5810,988.9699707031250000,47.9002113342285160,673.1857910156250000,4.1929020881652830,54.0035285949707000,52,100,86,79,79,14749,2147753965,2147421659,2148012050,2147874980,2147645805,2147054774,2148258651,2147200859,16,4,13,23895
1367434177,5807,994.1199951171875000,47.6621208190918000,672.1270141601562000,4.2279090881347660,54.0254402160644500,51,99,86,80,79,14740,2147756370,2147424283,2148009097,2147874413,2147640100,2147054198,2148262674,2147192521,438,4,13,58394
1367437777,5810,996.0999755859375000,46.2016716003418000,671.9379272460938000,4.2341609001159670,54.2258300781250000,53,101,86,78,81,14749,2147757650,2147426230,2148011913,2147872009,2147643657,2147053705,2148258240,2147195282,190,4,13,9437
1367439056,5809,993.7100219726562000,46.4165916442871100,671.3557739257812000,4.2533988952636720,54.1913414001464840,52,98,88,79,79,14743,2147759195,2147423378,2148012388,2147876260,2147641810,2147059501,2148258916,2147195264,180,4,13,44887
